Terug naar catalogus

FENGYUN 1C DEB

LostSSO
NORAD 31425·DEBRIS·🇨🇳 China

Gelanceerd May 10, 1999 vanaf Taiyuan Satellite Launch Center

Loading…

Volgende Passages (komende 24 uur)

TLE

VerouderdSource: Space-Track

Epoch: Feb 19, 2008, 16:55 UTC

1 31425U 99025BTM 08050.70542971  .00000357  00000-0  27412-3 0  9992
2 31425  98.7911  27.3891 0081487 148.5974 209.2450 13.97702990 43992

Volg FENGYUN 1C DEB in realtime met AllMySat

Download on the App Store